This demonstration page uses our WeatherBlox Daily Observations layout. Learn more.

Left ArrowRight Arrow

44.31136, -96.79839

Hourly Observations for July 7, 2022

Temp ( °F °C ) Dew Point ( °F °C ) Humidity (%) Winds ( mph kmh ) Pressure ( in mb ) Visibility ( mi km ) Precip ( " mm )
12:56 am 00:56 Clear 70 21.1 69 20.6 97 97 E 7 11 30.01 1016 7 11 0.00 0.00
1:36 am 01:36 Mostly Cloudy with Mist and Fog 70 21 68 20 94 94 Calm 29.96 1015 5 8 0.00 0.00
1:56 am 01:56 Cloudy with Mist and Fog 68 20 68 20 100 100 Calm 30.02 1017 4 6 0.00 0.00
2:08 am 02:08 Mostly Cloudy with Mist and Fog 68 20 68 20 100 100 Calm 29.96 1015 5 8 0.00 0.00
2:56 am 02:56 Clear with Mist and Fog 70 21.1 70 21.1 100 100 ESE 6 9 30.02 1017 6 10 0.00 0.00
3:56 am 03:56 Mostly Clear with Mist and Fog 69 20.6 69 20.6 100 100 ESE 6 9 30.00 1016 3 5 0.00 0.00
4:56 am 04:56 Clear with Mist and Fog 69 20.6 69 20.6 100 100 E 5 7 29.98 1015 4 6 0.00 0.00
5:45 am 05:45 Clear with Mist and Fog 70 21 70 21 100 100 ESE 6 9 29.93 1014 3 4 0.00 0.00
5:56 am 05:56 Sunny with Mist and Fog 69 20.6 69 20.6 100 100 SE 7 11 30.00 1016 3 4 0.00 0.00
6:37 am 06:37 Partly Cloudy with Mist and Fog 70 21 70 21 100 100 SE 7 11 29.94 1014 3 5 0.00 0.00
6:56 am 06:56 Partly Cloudy with Mist and Fog 69 20.6 69 20.6 100 100 ESE 5 7 30.01 1016 4 6 0.00 0.00
7:56 am 07:56 Sunny 71 21.7 70 21.1 96 96 ESE 5 7 30.01 1016 8 13 0.00 0.00
8:45 am 08:45 Mostly Cloudy 72 22 70 21 94 94 SE 8 13 29.96 1014 10 16 0.00 0.00
8:56 am 08:56 Cloudy 72 22.2 69 20.6 91 91 SE 8 13 30.03 1017 10 16 0.00 0.00
9:56 am 09:56 Partly Cloudy 76 24.4 69 20.6 79 79 SE 9 15 30.03 1017 10 16 0.00 0.00
10:11 am 10:11 Mostly Cloudy 79 26 68 20 70 70 SE 10 17 29.93 1014 10 16 0.00 0.00
10:23 am 10:23 Mostly Cloudy 79 26 70 21 74 74 SE 10 17 29.93 1014 10 16 0.00 0.00
10:38 am 10:38 Partly Cloudy 81 27 66 19 62 62 ESE 10 17 29.92 1013 10 16 0.00 0.00
10:54 am 10:54 Mostly Cloudy 81 27 70 21 70 70 SSE 10 17 29.92 1013 10 16 0.00 0.00
10:56 am 10:56 Mostly Cloudy 80 26.7 69 20.6 69 69 SE 10 17 30.01 1016 10 16 0.00 0.00
11:21 am 11:21 Partly Cloudy 82 28 66 19 58 58 E 8 13 29.91 1013 10 16 0.00 0.00
11:56 am 11:56 Mostly Sunny 83 28.3 67 19.4 59 59 ESE 10 17 30.01 1016 10 16 0.00 0.00
12:52 pm 12:52 Mostly Cloudy 82 28 70 21 66 66 E 10 17 29.90 1013 10 16 0.00 0.00
12:56 pm 12:56 Mostly Cloudy 81 27.2 68 20 65 65 E 9 15 30.00 1016 10 16 0.00 0.00
1:37 pm 13:37 Mostly Cloudy 81 27 68 20 66 66 E 8 13 29.91 1013 10 16 0.00 0.00
1:56 pm 13:56 Mostly Cloudy 81 27.2 69 20.6 67 67 E 7 11 30.00 1016 10 16 0.00 0.00
2:56 pm 14:56 Mostly Sunny 82 27.8 68 20 63 63 E 9 15 29.99 1016 10 16 0.00 0.00
3:56 pm 15:56 Mostly Cloudy 81 27.2 70 21.1 69 69 W 7 11 30.00 1016 10 16 0.00 0.00
4:36 pm 16:36 Mostly Cloudy 73 23 64 18 74 74 NW 18 30 29.93 1014 10 16 0.00 0.00
4:56 pm 16:56 Cloudy 74 23.3 67 19.4 79 79 NNW 16 26 30.01 1016 10 16 0.00 0.00
5:56 pm 17:56 Mostly Cloudy 72 22.2 66 18.9 82 82 ENE 14 22 30.01 1016 10 16 0.00 0.00
6:56 pm 18:56 Mostly Sunny 75 23.9 67 19.4 76 76 NE 14 22 30.00 1016 10 16 0.00 0.00
7:56 pm 19:56 Mostly Cloudy 73 22.8 68 20 84 84 ENE 12 19 30.00 1016 10 16 0.00 0.00
8:56 pm 20:56 Cloudy 72 22.2 67 19.4 84 84 ENE 12 19 30.02 1017 10 16 0.00 0.00
9:56 pm 21:56 Cloudy 71 21.7 66 18.9 84 84 ENE 12 19 30.03 1017 10 16 0.00 0.00
10:56 pm 22:56 Cloudy 70 21.1 65 18.3 84 84 ENE 8 13 30.05 1018 10 16 0.00 0.00
11:56 pm 23:56 Mostly Cloudy 69 20.6 66 18.9 90 90 ENE 13 20 30.05 1018 10 16 0.00 0.00

Powered by AerisWeather